Date,TemperatureHighF,TemperatureAvgF,TemperatureLowF,DewpointHighF,DewpointAvgF,DewpointLowF,HumidityHigh,HumidityAvg,HumidityLow,PressureMaxIn,PressureMinIn,WindSpeedMaxMPH,WindSpeedAvgMPH,GustSpeedMaxMPH,PrecipitationSumIn
2012-1-1,66,48,28,53,39,27,99,74,43,30.15,29.84,23,2,23,0.00
2012-1-2,51,40,29,32,18,11,51,40,27,30.05,29.91,22,5,22,0.00
2012-1-3,34,27,20,11,6,3,64,42,28,30.35,30.04,19,6,29,0.00
2012-1-4,43,27,14,16,11,7,80,54,24,30.40,30.06,14,1,14,0.00
2012-1-5,54,36,25,28,23,14,83,60,32,30.11,30.02,15,1,17,0.00
2012-1-6,66,42,25,35,27,22,93,62,23,30.10,29.94,10,0,10,0.00
2012-1-7,70,48,28,46,37,25,92,70,42,30.04,29.92,12,1,14,0.00
2012-1-8,60,51,42,43,39,33,90,65,43,30.24,30.04,10,0,10,0.02
2012-1-9,46,43,42,42,41,41,100,95,83,30.24,30.05,6,0,6,0.27
2012-1-10,55,45,40,44,41,35,100,86,49,30.11,30.00,7,0,7,0.00
2012-1-11,57,49,41,57,47,40,100,95,80,30.00,29.50,15,1,15,0.42
2012-1-12,58,50,43,50,46,42,97,86,71,29.65,29.49,18,2,18,0.02
2012-1-13,52,36,26,47,21,15,82,53,40,30.07,29.50,33,4,33,0.00
2012-1-14,44,31,20,24,19,15,92,62,35,30.22,30.06,17,1,17,0.00
2012-1-15,44,32,23,28,22,18,92,69,41,30.56,30.10,15,1,16,0.00
2012-1-16,47,34,20,33,24,17,91,70,43,30.61,30.32,14,1,14,0.00
2012-1-17,64,51,36,53,43,31,92,75,61,30.32,29.80,20,2,20,0.13
2012-1-18,55,45,31,54,32,18,97,62,35,30.13,29.83,19,2,19,0.05
2012-1-19,48,36,22,30,23,17,84,59,41,30.24,30.04,13,1,13,0.00
2012-1-20,58,41,26,43,34,24,98,77,43,30.17,30.06,11,0,11,0.23
2012-1-21,53,48,37,53,48,33,100,98,87,30.18,29.84,15,1,15,0.25
2012-1-22,36,34,31,34,31,28,97,91,85,30.38,30.18,7,1,13,0.00
2012-1-23,51,40,34,51,40,34,100,99,97,30.31,30.01,8,0,8,0.06
2012-1-24,61,49,35,53,47,34,100,94,69,30.23,30.01,9,1,9,0.01
2012-1-25,62,42,28,45,34,28,100,78,33,30.33,30.18,9,0,9,0.00
2012-1-26,70,51,34,59,47,32,100,87,63,30.19,29.72,19,1,19,0.00
2012-1-27,66,59,38,60,49,32,98,72,43,30.02,29.57,23,4,23,0.58
2012-1-28,62,44,28,40,32,24,99,67,39,30.21,30.00,20,2,20,0.01
2012-1-29,52,40,26,25,17,7,82,42,16,30.37,30.21,14,1,14,0.00
2012-1-30,60,40,24,28,23,15,84,55,22,30.43,30.25,18,1,18,0.00
2012-1-31,68,49,30,33,28,24,81,48,23,30.37,30.22,15,1,15,0.00
2012-2-1,70,56,46,52,40,28,95,56,43,30.24,30.03,14,1,16,0.03
2012-2-2,69,56,39,54,45,28,100,70,34,30.31,29.97,21,2,21,0.02
2012-2-3,59,42,28,37,30,26,97,67,31,30.49,30.30,11,1,11,0.00
2012-2-4,53,43,30,48,39,27,99,88,58,30.37,30.02,10,0,10,0.12
2012-2-5,48,41,31,48,40,30,100,96,88,30.26,29.96,11,1,11,0.12
2012-2-6,47,38,29,38,34,28,100,86,59,30.30,30.13,6,0,6,0.01
2012-2-7,57,40,28,35,31,27,97,74,35,30.19,30.11,6,1,10,0.00
2012-2-8,50,34,25,39,30,24,98,85,62,30.21,30.09,7,1,11,0.01
2012-2-9,51,36,26,34,27,24,97,75,41,30.30,30.17,16,1,16,0.01
2012-2-10,48,36,24,37,31,22,96,81,64,30.22,29.86,6,0,6,0.00
2012-2-11,49,37,23,38,23,0,97,61,29,30.05,29.71,33,6,33,0.00
2012-2-12,41,29,19,15,6,-1,63,39,26,30.26,30.05,31,6,31,0.00
2012-2-13,52,34,17,23,15,10,85,52,19,30.29,30.13,11,1,11,0.00
2012-2-14,56,51,43,40,35,29,70,55,41,30.11,29.98,15,2,15,0.00
2012-2-15,65,47,30,40,32,27,98,63,24,30.27,30.06,17,1,17,0.00
2012-2-16,56,46,36,51,42,30,100,85,54,30.26,29.99,16,1,16,0.20
2012-2-17,63,49,38,49,41,36,100,78,39,30.10,30.01,13,1,14,0.01
2012-2-18,65,50,34,43,37,27,97,67,31,30.13,29.93,12,1,12,0.00
2012-2-19,49,40,31,44,35,30,100,85,64,29.95,29.73,16,2,16,0.56
2012-2-20,50,36,26,35,29,24,97,78,44,30.35,29.90,12,1,12,0.20
2012-2-21,57,40,22,44,33,20,96,78,53,30.34,29.97,15,1,15,0.00
2012-2-22,69,52,31,48,42,30,99,71,41,29.98,29.54,19,1,19,0.00
2012-2-23,74,56,40,60,51,40,100,83,52,29.68,29.54,28,1,28,0.18
2012-2-24,76,65,47,63,54,24,92,69,38,29.84,29.41,26,4,26,0.15
2012-2-25,51,43,34,25,19,14,63,40,26,30.33,29.84,32,6,32,0.00
2012-2-26,54,37,23,25,20,15,82,53,23,30.50,30.32,11,1,11,0.00
2012-2-27,48,39,26,47,37,21,100,91,78,30.47,30.32,7,0,7,0.17
2012-2-28,66,52,40,49,40,31,100,70,28,30.41,30.28,11,1,11,0.00
2012-2-29,69,55,40,61,50,36,99,82,72,30.29,29.80,18,2,18,0.03
2012-3-1,79,65,44,60,52,39,96,67,25,29.87,29.69,21,3,21,0.00
2012-3-2,53,48,36,53,46,35,100,93,82,30.00,29.67,13,1,13,0.04
2012-3-3,59,54,47,59,50,36,100,87,46,29.74,29.55,25,1,25,0.92
2012-3-4,52,44,31,45,29,17,91,58,32,30.02,29.65,22,4,22,0.03
2012-3-5,51,40,29,32,22,15,81,51,28,30.50,29.90,36,5,36,0.00
2012-3-6,55,38,22,28,22,17,88,58,25,30.67,30.49,11,1,12,0.00
2012-3-7,68,49,28,47,38,24,92,69,42,30.64,30.42,15,1,15,0.00
2012-3-8,72,58,40,56,48,38,100,74,41,30.43,30.09,18,2,18,0.00
2012-3-9,60,53,34,57,43,29,99,71,36,30.31,30.03,22,2,22,0.21
2012-3-10,59,44,31,32,26,21,91,54,25,30.52,30.31,12,1,14,0.00
2012-3-11,65,44,27,33,28,23,94,59,21,30.58,30.43,9,1,15,0.00
2012-3-12,71,53,33,52,42,29,92,70,48,30.44,30.22,14,1,14,0.00
2012-3-13,79,63,54,61,55,49,98,77,48,30.22,30.07,12,1,15,0.01
2012-3-14,84,65,47,63,52,46,100,70,29,30.21,30.11,10,1,10,0.00
2012-3-15,84,64,48,59,52,47,100,70,31,30.24,30.14,23,1,23,0.01
2012-3-16,81,64,50,61,55,49,100,76,39,30.19,30.07,19,1,19,0.11
2012-3-17,80,66,54,66,59,54,100,81,47,30.23,30.12,10,1,10,0.08
2012-3-18,69,61,55,63,59,55,100,95,81,30.31,30.18,7,0,7,0.06
2012-3-19,80,63,50,66,58,50,100,86,49,30.25,30.09,11,1,11,0.01
2012-3-20,84,68,55,66,59,55,100,78,42,30.23,30.07,10,1,19,1.05
2012-3-21,77,65,57,66,61,57,100,88,58,30.28,30.16,9,1,9,0.04
2012-3-22,80,66,54,67,60,54,100,84,53,30.25,30.11,10,1,10,0.00
2012-3-23,84,68,54,67,60,53,100,78,44,30.12,29.92,14,1,14,0.01
2012-3-24,74,64,55,68,62,53,100,96,77,29.97,29.71,27,1,27,1.38
2012-3-25,65,58,55,60,56,55,100,94,80,29.79,29.67,16,2,16,0.04
2012-3-26,76,64,55,57,50,30,99,66,33,30.09,29.77,21,3,21,0.01
2012-3-27,65,51,39,36,26,18,80,42,19,30.35,30.09,12,1,12,0.00
2012-3-28,78,60,41,60,48,32,85,68,50,30.25,29.83,21,2,21,0.00
2012-3-29,83,68,53,56,46,33,80,52,17,29.91,29.80,15,2,23,0.00
2012-3-30,78,61,47,60,50,43,92,70,45,30.03,29.82,10,1,10,0.00
2012-3-31,76,65,58,65,60,54,100,85,54,29.84,29.67,22,1,22,0.33
2012-4-1,70,60,50,58,52,46,95,75,48,29.91,29.68,13,1,13,0.02
2012-4-2,77,66,49,61,52,42,81,63,34,29.92,29.61,15,2,17,0.00
2012-4-3,79,60,39,59,48,38,99,69,32,30.02,29.78,14,1,14,0.03
2012-4-4,86,69,56,64,59,53,99,74,40,29.80,29.58,20,1,20,0.12
2012-4-5,64,58,47,63,49,40,100,75,44,29.84,29.61,12,1,14,0.14
2012-4-6,64,51,39,44,39,30,91,69,29,30.08,29.80,18,2,18,0.03
2012-4-7,69,49,32,42,32,21,99,62,19,30.27,30.08,15,1,15,0.00
2012-4-8,76,55,32,47,37,26,99,61,19,30.15,29.89,16,1,19,0.00
2012-4-9,74,60,46,44,34,25,78,41,17,30.04,29.81,18,2,19,0.00
2012-4-10,74,58,40,46,37,29,92,53,22,29.94,29.74,27,2,30,0.00
2012-4-11,55,48,36,33,25,21,66,41,27,30.14,29.78,25,3,25,0.00
2012-4-12,63,46,29,37,30,24,86,58,27,30.22,30.11,19,1,19,0.00
2012-4-13,70,50,34,43,36,31,97,66,24,30.26,30.15,8,0,9,0.00
2012-4-14,76,56,35,49,40,34,99,63,28,30.32,30.15,13,1,13,0.00
2012-4-15,80,66,56,63,57,48,99,76,50,30.22,30.10,17,2,17,0.00
2012-4-16,85,71,60,62,58,55,86,67,41,30.18,30.04,16,2,20,0.00
2012-4-17,86,70,54,63,57,52,100,68,37,30.15,30.04,11,1,11,0.25
2012-4-18,65,58,53,56,51,47,97,77,61,30.15,30.03,12,1,12,0.18
2012-4-19,61,56,51,55,52,50,98,88,75,30.09,30.02,10,1,10,0.00
2012-4-20,72,60,50,62,56,50,100,87,69,30.02,29.84,9,0,9,0.00
2012-4-21,78,64,51,69,60,51,100,89,60,29.86,29.66,12,0,12,0.04
2012-4-22,60,54,47,58,52,45,98,96,92,29.71,29.46,19,2,19,0.94
2012-4-23,50,45,39,45,40,35,97,84,60,29.69,29.48,16,3,24,0.03
2012-4-24,64,48,34,39,32,23,95,61,23,29.80,29.67,19,2,23,0.00
2012-4-25,69,53,38,54,46,34,94,78,51,29.98,29.80,15,1,15,0.05
2012-4-26,79,64,52,66,58,51,100,85,52,29.88,29.73,22,2,22,0.13
2012-4-27,79,67,56,62,56,48,100,71,39,30.08,29.77,13,1,13,0.00
2012-4-28,59,56,53,50,47,44,83,72,63,30.19,30.05,10,1,10,0.00
2012-4-29,79,64,53,64,56,48,91,76,56,30.18,30.08,7,1,10,0.00
2012-4-30,81,68,59,68,63,56,100,86,62,30.23,30.07,11,1,11,0.00
2012-5-1,88,74,65,71,66,63,96,78,55,30.13,29.98,15,1,15,0.00
2012-5-2,92,76,64,73,67,62,98,75,45,30.09,30.00,12,1,12,0.00
2012-5-3,92,76,61,73,66,60,100,75,41,30.10,30.00,10,0,10,0.00
2012-5-4,90,73,57,72,64,57,100,78,43,30.03,29.87,11,1,11,0.00
2012-5-5,88,72,61,71,66,59,100,83,51,29.88,29.75,10,1,14,0.28
2012-5-6,77,68,60,68,65,59,100,92,71,30.02,29.86,11,1,11,0.08
2012-5-7,78,67,57,65,61,57,100,82,58,30.05,29.94,14,1,14,0.00
2012-5-8,78,69,60,66,62,57,94,79,62,30.00,29.81,13,1,13,0.00
2012-5-9,74,65,57,68,63,57,100,93,76,29.85,29.66,28,0,28,1.06
2012-5-10,72,60,49,57,50,45,100,76,40,29.96,29.69,18,2,18,0.01
2012-5-11,75,58,42,53,45,38,100,68,29,30.22,29.96,11,1,11,0.00
2012-5-12,77,60,42,59,50,41,100,73,36,30.33,30.21,9,0,9,0.00
2012-5-13,73,63,52,64,59,50,100,88,69,30.25,30.11,11,1,11,0.12
2012-5-14,70,65,61,68,64,61,100,98,87,30.11,29.91,14,1,14,0.69
2012-5-15,82,70,62,73,67,62,100,90,67,29.97,29.88,12,1,12,0.16
2012-5-16,82,72,63,71,66,62,100,86,52,29.95,29.85,13,0,14,0.03
2012-5-17,81,70,61,71,65,61,100,85,56,30.01,29.88,14,1,14,0.00
2012-5-18,76,66,56,62,53,46,85,64,39,30.08,30.00,15,1,15,0.00
2012-5-19,78,64,51,56,51,46,91,66,35,30.13,30.04,14,1,14,0.00
2012-5-20,81,67,50,61,55,49,100,70,37,30.11,30.01,15,1,15,0.00
2012-5-21,82,71,63,67,63,58,99,79,54,30.01,29.83,10,0,10,0.01
2012-5-22,85,70,63,70,65,60,100,85,55,29.87,29.75,13,0,13,0.01
2012-5-23,83,68,59,70,64,59,100,89,57,29.93,29.77,14,0,15,0.63
2012-5-24,88,71,59,75,67,59,100,87,47,30.02,29.91,6,0,6,0.00
2012-5-25,89,74,60,75,67,60,100,81,48,30.11,30.01,8,0,11,0.00
2012-5-26,88,75,63,71,66,63,100,79,50,30.12,30.04,13,1,13,0.00
2012-5-27,87,73,61,75,68,61,100,87,59,30.13,30.02,8,0,10,0.00
2012-5-28,89,76,69,74,71,68,100,86,57,30.06,29.95,15,0,15,0.03
2012-5-29,86,74,67,76,71,67,100,91,65,29.99,29.81,11,0,13,0.25
2012-5-30,85,73,64,73,68,61,100,86,46,29.84,29.70,12,1,16,0.07
2012-5-31,91,76,60,70,64,60,100,72,37,29.87,29.77,10,0,13,0.00
2012-6-1,87,72,63,73,67,59,100,85,56,29.86,29.65,18,1,22,0.63
2012-6-2,75,64,54,63,56,50,100,77,47,29.89,29.76,12,1,14,0.01
2012-6-3,80,65,49,61,55,48,100,73,46,29.94,29.78,14,1,16,0.00
2012-6-4,84,70,57,66,59,55,100,72,40,29.80,29.63,16,1,16,0.00
2012-6-5,78,67,60,59,56,50,93,70,42,29.91,29.69,11,1,13,0.00
2012-6-6,72,62,55,60,56,53,97,81,57,30.00,29.88,11,0,11,0.31
2012-6-7,82,67,54,62,57,52,100,75,40,30.04,29.96,9,1,10,0.00
2012-6-8,85,68,53,63,56,51,100,72,33,30.04,29.95,11,1,11,0.00
2012-6-9,88,71,53,66,59,53,100,71,32,30.06,29.97,9,0,10,0.00
2012-6-10,85,73,60,69,63,55,100,73,38,30.13,30.03,6,0,7,0.00
2012-6-11,83,73,69,75,69,63,100,87,71,30.13,30.00,17,1,17,0.26
2012-6-12,84,74,69,76,72,69,100,94,73,30.01,29.82,7,0,10,0.10
2012-6-13,86,75,63,72,67,60,100,78,55,30.00,29.84,13,1,15,0.00
2012-6-14,81,68,54,67,61,52,98,78,59,30.15,30.00,13,1,15,0.00
2012-6-15,80,69,56,63,59,55,100,74,48,30.21,30.12,17,1,17,0.00
2012-6-16,81,67,52,59,55,51,100,68,38,30.26,30.12,14,1,15,0.00
2012-6-17,82,67,51,62,57,51,100,75,46,30.18,30.00,9,0,10,0.00
2012-6-18,87,72,58,69,63,57,98,77,51,30.08,30.00,9,1,12,0.00
2012-6-19,92,76,64,78,68,62,98,79,48,30.13,30.06,10,1,13,0.05
2012-6-20,95,79,65,76,70,65,100,77,42,30.13,30.02,7,0,7,0.00
2012-6-21,94,81,67,77,71,66,100,76,47,30.03,29.85,7,0,9,0.00
2012-6-22,96,79,70,75,69,66,92,75,44,29.89,29.76,23,1,23,0.00
2012-6-23,90,77,66,75,70,66,100,81,53,29.98,29.83,9,1,9,0.03
2012-6-24,92,79,66,75,68,62,100,75,39,29.99,29.87,11,1,13,0.00
2012-6-25,93,81,72,75,70,62,96,71,44,29.90,29.65,10,1,12,0.00
2012-6-26,82,73,58,66,51,44,85,49,29,29.89,29.74,14,2,18,0.00
2012-6-27,89,70,52,60,53,46,100,62,24,29.96,29.86,15,1,16,0.00
2012-6-28,96,76,55,66,58,53,100,61,25,29.99,29.84,13,1,14,0.00
2012-6-29,105,85,64,76,68,60,94,61,32,29.85,29.70,17,1,27,0.00
2012-6-30,104,86,66,74,68,62,90,58,31,29.88,29.77,14,1,15,0.00
2012-7-1,102,86,72,77,67,56,84,56,23,29.94,29.79,18,1,21,0.00
2012-7-2,96,82,70,68,65,61,83,59,33,29.99,29.89,25,2,25,0.00
2012-7-3,100,83,68,75,68,63,100,66,32,29.97,29.85,10,1,14,0.00
2012-7-4,101,83,69,74,69,64,97,66,31,29.95,29.84,11,1,12,0.00
2012-7-5,102,82,69,76,70,65,99,70,34,29.91,29.81,12,1,13,0.01
2012-7-6,98,78,68,74,70,65,100,79,41,29.93,29.85,16,1,17,0.69
2012-7-7,101,84,69,82,73,67,100,74,36,29.97,29.86,10,1,14,0.01
2012-7-8,103,87,72,78,72,65,97,65,32,29.92,29.77,12,1,12,0.00
2012-7-9,96,81,72,76,73,70,100,77,48,29.96,29.80,12,1,13,0.72
2012-7-10,86,76,71,78,73,71,100,93,69,30.01,29.90,10,0,12,0.04
2012-7-11,80,71,67,75,70,66,100,97,83,30.11,29.99,12,0,14,0.68
2012-7-12,82,74,66,74,70,66,100,90,71,30.14,30.09,10,0,10,0.00
2012-7-13,88,76,70,78,73,70,100,90,65,30.18,30.10,9,0,10,0.01
2012-7-14,92,80,71,79,74,71,100,85,55,30.20,30.07,10,1,13,0.00
2012-7-15,93,81,70,79,74,70,100,81,52,30.17,30.02,9,1,11,0.00
2012-7-16,94,81,73,77,73,70,94,78,50,30.06,29.88,11,1,11,0.00
2012-7-17,98,83,70,79,73,67,100,76,39,29.94,29.83,7,1,10,0.00
2012-7-18,95,83,72,79,74,70,100,76,50,29.95,29.85,12,1,13,0.00
2012-7-19,95,82,73,78,73,70,100,77,51,29.98,29.88,16,1,26,0.49
2012-7-20,74,74,73,72,72,71,96,94,93,29.92,29.88,4,0,6,0.00
2012-7-21,91,68,71,100,79,70,100,78,68,30.08,29.92,13,-139,15,1.51
2012-7-22,86,21,80,100,95,77,95,21,79,30.18,30.04,4,-752,5,0.00
2012-7-23,95,46,71,100,87,70,100,39,47,30.15,29.97,13,-463,13,0.00
2012-7-24,95,41,72,100,90,72,100,36,62,29.99,29.83,12,-528,12,0.00
2012-7-25,90,82,73,76,74,72,100,77,57,29.94,29.86,7,1,9,0.00
2012-7-26,96,84,72,82,76,72,100,81,54,29.88,29.73,12,1,13,0.00
2012-7-27,97,82,72,82,76,69,100,84,52,29.90,29.78,27,1,37,1.30
2012-7-28,95,80,70,80,74,70,100,85,46,29.98,29.84,15,0,17,0.14
2012-7-29,92,78,67,76,70,66,100,81,43,29.98,29.89,7,0,9,0.01
2012-7-30,91,77,68,77,71,67,100,85,56,29.99,29.90,14,1,17,0.00
2012-7-31,88,76,69,78,72,68,100,90,66,29.98,29.85,7,0,9,0.00
2012-8-1,90,78,69,78,73,69,100,85,56,29.90,29.78,7,0,9,0.00
2012-8-2,94,79,70,77,71,67,100,80,51,29.92,29.81,17,0,17,0.00
2012-8-3,92,79,66,76,71,66,100,79,52,30.05,29.89,10,1,10,0.00
2012-8-4,92,80,71,78,73,70,100,80,51,30.17,30.03,9,1,14,0.00
2012-8-5,91,79,71,79,74,70,100,85,58,30.20,30.07,16,1,21,0.02
2012-8-6,92,79,72,79,74,71,100,86,57,30.10,29.97,11,1,13,0.24
2012-8-7,84,76,72,79,74,71,100,96,83,30.03,29.93,7,0,7,0.03
2012-8-8,90,75,68,79,72,67,100,94,65,29.98,29.85,17,0,17,0.01
2012-8-9,87,75,64,79,72,64,100,91,73,29.98,29.83,9,0,9,0.00
2012-8-10,82,75,69,77,73,69,100,96,82,29.87,29.78,14,1,17,0.56
2012-8-11,84,74,70,78,73,69,100,96,78,29.92,29.81,10,1,13,0.76
2012-8-12,88,75,68,73,69,63,100,84,50,29.99,29.89,6,0,6,0.00
2012-8-13,89,75,64,75,69,64,100,83,51,30.03,29.91,10,0,10,0.00
2012-8-14,90,76,62,76,68,62,100,81,52,29.93,29.82,7,0,11,0.00
2012-8-15,88,76,68,78,72,68,100,87,61,29.91,29.83,6,0,7,0.00
2012-8-16,89,75,66,72,68,65,100,82,48,30.01,29.91,7,0,9,0.00
2012-8-17,91,75,62,73,68,62,100,82,48,29.97,29.79,10,0,13,0.01
2012-8-18,87,74,65,73,69,65,100,86,58,29.89,29.80,8,0,9,0.01
2012-8-19,73,70,67,73,69,67,100,99,94,29.88,29.80,9,0,12,0.79
2012-8-20,79,70,66,73,69,66,100,95,76,29.95,29.82,5,0,5,0.20
2012-8-21,85,72,66,74,69,65,100,89,58,30.05,29.94,4,0,6,0.01
2012-8-22,79,71,65,75,70,65,100,95,84,30.10,30.02,6,0,9,0.01
2012-8-23,86,74,66,73,68,63,100,84,49,30.12,30.05,12,1,12,0.00
2012-8-24,79,71,63,71,67,63,100,89,65,30.13,30.07,6,0,8,0.00
2012-8-25,74,68,63,65,63,59,98,85,73,30.12,30.06,15,1,17,0.00
2012-8-26,86,72,60,72,67,60,100,84,57,30.17,30.07,9,0,9,0.00
2012-8-27,90,75,64,79,71,63,100,90,64,30.13,29.97,6,0,7,0.00
2012-8-28,88,78,69,80,75,69,100,92,73,30.01,29.87,12,1,16,0.00
2012-8-29,88,76,68,76,72,68,100,88,64,29.98,29.88,6,0,7,0.00
2012-8-30,90,76,65,77,71,65,100,85,55,30.12,29.97,9,0,11,0.00
2012-8-31,94,80,69,80,74,69,100,86,54,30.18,30.03,10,1,10,0.00
2012-9-1,95,81,70,80,74,70,100,81,48,30.09,29.99,11,1,13,0.00
2012-9-2,93,80,71,80,75,69,100,88,62,30.02,29.88,15,1,15,0.91
2012-9-3,89,74,70,81,73,70,100,97,75,30.02,29.91,11,1,12,0.37
2012-9-4,87,77,71,79,74,71,100,93,72,30.00,29.88,10,0,11,0.02
2012-9-5,87,77,71,78,74,71,100,92,72,29.92,29.81,11,1,17,0.00
2012-9-6,88,76,71,81,74,70,100,96,77,29.93,29.83,16,0,17,0.17
2012-9-7,87,75,69,76,72,69,100,91,65,29.97,29.83,7,0,10,0.00
2012-9-8,90,74,66,80,71,65,100,93,60,29.84,29.65,17,1,21,0.37
2012-9-9,80,68,58,70,61,56,100,82,46,29.97,29.79,10,1,17,0.17
2012-9-10,80,64,52,63,56,52,100,80,40,30.15,29.97,11,1,12,0.01
2012-9-11,80,64,50,62,55,50,100,78,43,30.29,30.15,8,0,10,0.00
2012-9-12,81,64,50,63,56,50,100,79,42,30.35,30.25,12,1,12,0.00
2012-9-13,60,52,49,54,52,49,100,99,97,30.33,30.25,0,0,0,0.01
2012-9-14,83,67,56,72,64,56,100,90,67,30.25,30.12,6,0,6,0.00
2012-9-15,82,68,55,70,63,55,100,85,59,30.16,30.07,10,1,12,0.00
2012-9-16,65,61,59,61,60,58,100,94,83,30.17,30.07,7,0,9,0.12
2012-9-17,79,68,60,74,67,60,100,97,82,30.10,29.90,8,0,8,0.39
2012-9-18,76,71,68,76,71,68,100,100,96,29.90,29.68,25,2,25,3.43
2012-9-19,73,65,54,68,61,54,100,88,59,30.12,29.80,12,1,13,0.00
2012-9-20,78,62,50,64,57,50,100,85,53,30.16,30.03,6,0,8,0.00
2012-9-21,82,66,52,67,61,52,100,86,53,30.08,29.97,7,0,9,0.01
2012-9-22,86,71,60,72,65,59,100,84,54,29.98,29.85,13,1,13,0.07
2012-9-23,76,64,50,65,52,40,100,72,29,30.12,29.94,10,1,11,0.01
2012-9-24,74,57,44,55,48,43,100,78,37,30.23,30.12,9,1,10,0.00
2012-9-25,78,60,42,62,53,42,100,82,48,30.24,30.13,10,0,10,0.00
2012-9-26,83,66,51,67,60,51,100,85,50,30.20,30.12,9,0,10,0.00
2012-9-27,86,67,52,68,60,52,100,82,43,30.18,30.05,5,0,7,0.01
2012-9-28,86,67,53,73,62,53,100,88,52,30.08,29.95,18,0,23,0.19
2012-9-29,66,62,59,66,62,59,100,100,100,29.98,29.87,5,0,6,1.09
2012-9-30,72,62,58,63,60,58,100,92,68,29.91,29.83,7,0,7,0.02
2012-10-1,63,61,59,63,60,58,100,99,96,29.92,29.84,9,0,10,0.08
2012-10-2,86,73,62,80,71,62,100,95,73,29.93,29.78,10,0,10,0.14
2012-10-3,85,75,70,77,73,69,100,93,66,30.14,29.92,7,0,9,0.00
2012-10-4,79,69,60,69,66,60,100,91,66,30.20,30.11,8,1,11,0.01
2012-10-5,83,65,53,67,59,53,100,84,43,30.17,29.99,6,0,7,0.01
2012-10-6,83,67,54,69,61,54,100,82,50,30.00,29.85,11,1,13,0.00
2012-10-7,61,52,48,54,50,46,98,93,77,30.13,29.95,14,1,14,0.40
2012-10-8,50,48,46,49,46,41,98,92,74,30.21,30.12,10,1,12,0.22
2012-10-9,56,50,46,54,49,46,99,95,86,30.16,30.06,9,1,9,0.01
2012-10-10,72,58,49,56,53,49,100,84,54,30.10,29.95,14,1,14,0.00
2012-10-11,69,53,42,50,44,40,99,77,42,30.30,30.10,9,1,11,0.00
2012-10-12,74,54,39,56,46,38,100,80,36,30.32,30.15,11,1,13,0.01
2012-10-13,67,52,39,51,43,36,98,75,47,30.47,30.32,10,1,10,0.00
2012-10-14,75,56,38,64,53,38,100,90,65,30.33,30.00,7,0,8,0.00
2012-10-15,73,62,49,70,61,49,100,98,86,30.00,29.68,18,0,18,0.52
2012-10-16,70,53,41,51,46,40,100,80,42,29.96,29.84,10,1,11,0.00
2012-10-17,72,54,41,56,47,41,100,83,40,30.00,29.89,8,0,9,0.01
2012-10-18,78,57,41,70,56,41,100,95,75,29.92,29.74,5,0,7,0.06
2012-10-19,75,63,45,66,54,32,100,80,24,29.76,29.66,13,1,15,0.23
2012-10-20,71,53,40,51,45,39,100,79,39,29.95,29.74,9,1,11,0.00
2012-10-21,68,51,38,49,43,38,100,79,41,30.14,29.95,12,1,14,0.00
2012-10-22,77,53,36,54,45,36,100,80,35,30.24,30.12,6,0,7,0.01
2012-10-23,80,58,41,61,50,41,100,80,38,30.19,30.07,7,0,10,0.00
2012-10-24,84,60,43,62,52,43,100,81,35,30.19,30.05,7,0,8,0.00
2012-10-25,80,60,44,65,54,44,100,85,51,30.16,30.06,6,0,9,0.01
2012-10-26,68,59,48,64,58,48,100,96,86,30.12,29.91,9,1,11,0.00
2012-10-27,67,63,61,62,59,55,97,87,75,29.91,29.68,14,2,16,0.00
2012-10-28,64,59,51,55,51,45,84,73,59,29.68,29.55,16,3,19,0.00
2012-10-29,51,46,41,45,38,35,88,75,60,29.59,29.31,28,6,28,0.12
2012-10-30,50,45,42,36,32,29,78,60,46,29.59,29.28,22,5,25,0.02
2012-10-31,54,45,35,37,34,31,86,66,49,29.76,29.59,18,2,19,0.00
2012-11-1,57,46,33,38,35,31,92,68,45,29.85,29.73,19,2,20,0.00
2012-11-2,66,44,30,42,34,29,98,74,38,29.96,29.79,17,1,22,0.00
2012-11-3,61,43,29,39,33,27,100,73,35,30.10,29.96,16,1,16,0.01
2012-11-4,57,47,38,41,38,35,91,74,53,30.09,29.95,7,1,13,0.00
2012-11-5,57,44,32,40,34,30,94,71,39,30.11,29.99,10,1,11,0.00
2012-11-6,44,37,29,34,31,28,98,79,59,30.15,29.92,10,1,12,0.00
2012-11-7,55,42,33,35,31,28,84,67,44,29.94,29.82,10,1,13,0.00
2012-11-8,62,43,28,37,26,14,98,61,15,30.12,29.94,15,1,16,0.00
2012-11-9,66,44,28,35,30,25,93,64,26,30.25,30.11,10,1,12,0.00
2012-11-10,75,48,28,45,33,27,99,67,20,30.37,30.24,10,0,10,0.00
2012-11-11,74,51,31,52,42,30,99,76,41,30.47,30.36,9,0,10,0.00
2012-11-12,72,55,41,62,52,40,100,92,71,30.40,30.15,10,0,12,0.00
2012-11-13,60,47,33,60,45,32,100,95,86,30.41,30.12,15,1,19,0.13
2012-11-14,50,40,31,35,32,27,99,75,50,30.49,30.36,11,1,13,0.01
2012-11-15,44,40,35,42,35,28,98,83,65,30.37,30.24,7,0,9,0.15
2012-11-16,57,43,32,42,37,30,99,82,45,30.39,30.25,12,1,13,0.01
2012-11-17,57,42,27,34,29,25,98,65,30,30.48,30.38,15,1,17,0.00
2012-11-18,56,49,42,44,40,33,82,73,64,30.46,30.33,14,2,15,0.00
2012-11-19,58,50,39,46,42,36,91,74,62,30.34,30.17,17,2,17,0.00
2012-11-20,59,44,35,47,40,34,99,86,63,30.18,30.04,6,0,6,0.00
2012-11-21,62,42,29,46,34,28,100,78,37,30.18,30.09,14,1,14,0.01
2012-11-22,61,40,27,37,28,24,98,69,24,30.26,30.14,11,1,12,0.00
2012-11-23,66,45,25,39,32,23,96,68,35,30.17,29.88,16,1,20,0.00
2012-11-24,51,41,26,30,23,16,78,50,33,30.13,29.88,15,2,20,0.00
2012-11-25,52,33,18,24,20,14,89,62,28,30.18,30.02,11,1,12,0.00
2012-11-26,66,41,23,31,25,21,94,60,20,30.20,30.08,6,0,10,0.00
2012-11-27,56,44,32,43,37,27,93,78,50,30.24,30.09,6,0,8,0.08
2012-11-28,53,39,26,37,31,23,97,75,42,30.40,30.23,14,1,14,0.00
2012-11-29,55,34,20,32,25,18,93,74,37,30.48,30.36,6,0,7,0.01
2012-11-30,62,39,24,38,29,22,100,72,34,30.41,30.28,9,0,12,0.00
2012-12-1,66,42,27,46,35,26,97,78,42,30.41,30.31,6,0,7,0.00
2012-12-2,68,48,32,51,42,31,98,83,53,30.39,30.23,10,0,13,0.00
2012-12-3,75,58,46,58,51,43,100,81,49,30.28,30.18,6,0,7,0.01
2012-12-4,72,53,38,58,48,37,100,84,54,30.30,30.15,9,0,12,0.00
2012-12-5,63,56,37,56,51,36,93,83,71,30.20,30.09,11,1,11,0.00
2012-12-6,52,43,31,38,32,30,99,70,48,30.33,30.19,9,1,11,0.01
2012-12-7,50,46,43,48,42,33,100,86,65,30.21,29.99,4,0,4,0.21
2012-12-8,64,52,44,58,50,43,100,95,77,30.05,29.94,6,0,8,0.01
2012-12-9,73,57,43,63,55,43,100,93,69,30.11,29.95,11,0,11,0.00
2012-12-10,69,63,58,63,60,58,100,91,77,29.95,29.65,14,1,18,0.01
2012-12-11,64,54,44,59,43,30,96,67,48,30.14,29.68,12,2,13,0.00
2012-12-12,46,42,37,36,33,30,90,70,56,30.33,30.13,11,1,16,0.17
2012-12-13,51,39,27,37,32,25,94,77,56,30.39,30.27,12,1,13,0.09
2012-12-14,59,35,22,36,27,20,100,77,32,30.39,30.23,4,0,5,0.00
2012-12-15,58,41,27,40,32,25,97,75,36,30.27,30.07,7,0,9,0.00
2012-12-16,58,51,45,54,49,39,99,91,76,30.07,29.87,6,0,9,0.08
2012-12-17,59,56,52,57,54,52,100,96,89,29.87,29.62,14,1,18,0.23
2012-12-18,61,51,32,56,44,30,100,79,43,29.90,29.62,22,2,22,0.01
2012-12-19,66,43,27,42,33,27,100,75,32,30.11,29.88,14,1,15,0.01
2012-12-20,61,48,33,61,43,32,99,84,68,30.15,29.44,19,2,23,0.36
2012-12-21,54,41,36,46,27,20,79,57,43,29.82,29.48,25,6,30,0.00
2012-12-22,50,38,26,25,21,17,85,52,29,30.10,29.82,19,3,26,0.00
2012-12-23,54,36,20,32,22,16,92,62,24,30.15,30.01,10,0,11,0.00
2012-12-24,49,45,40,46,38,29,93,75,58,30.02,29.88,8,1,11,0.00
2012-12-25,59,50,45,46,43,40,94,78,50,30.08,29.91,10,1,11,0.02
2012-12-26,45,41,35,44,39,34,99,94,78,30.05,29.44,18,2,18,1.25
2012-12-27,49,39,32,35,29,23,98,69,48,30.08,29.63,16,3,18,0.00
2012-12-28,43,34,24,30,26,21,90,74,54,30.20,29.98,6,0,9,0.00
2012-12-29,51,41,34,43,34,24,98,77,54,29.99,29.65,21,4,26,0.31
2012-12-30,46,35,24,24,21,18,84,57,35,30.40,29.96,17,3,19,0.00
2012-12-31,53,37,20,32,24,18,92,64,32,30.38,30.09,11,1,14,0.00
2013-1-1,49,45,41,48,40,27,100,83,49,30.09,29.92,10,0,10,0.24